Theta_e
319 319 319 319 318 317 316 315 316 316 316 315 315 316 316 315 315 307 300 308 312 319 324 309 308 305 300 295 296 293 287 285 287 289 290 293 292 298 301 299 301 305 307 334 346
318 318 317 317 317 316 316 317 315 315 315 315 315 315 315 316 306 302 311 318 320 323 314 305 303 302 295 293 293 291 286 288 292 293 291 293 294 296 298 298 299 303 314 345 345
317 317 317 316 316 316 316 315 314 315 315 315 315 315 316 314 297 296 325 327 324 321 315 308 305 301 294 291 290 290 288 293 295 297 296 295 293 296 295 295 298 299 305 331 340
316 316 316 316 315 316 315 315 314 315 315 315 314 315 315 306 286 299 326 319 326 317 317 308 301 296 291 291 292 286 291 296 296 299 298 297 296 295 295 297 300 301 302 311 332
313 313 313 313 313 313 314 314 314 315 314 314 313 314 309 296 297 307 318 313 319 315 312 306 299 293 291 291 291 287 290 293 296 298 295 298 297 295 296 300 301 301 303 304 303
312 312 312 311 311 311 312 313 313 314 314 314 313 313 303 291 304 307 306 306 312 311 309 306 302 299 294 291 291 292 293 295 295 293 292 293 296 295 295 299 299 299 301 303 303
311 311 311 311 311 311 311 312 312 311 312 312 312 309 299 295 305 305 306 301 304 309 310 309 307 303 299 295 296 293 290 293 293 292 291 293 293 294 298 299 297 298 299 300 301
311 311 310 310 310 310 311 311 311 310 312 312 312 308 295 305 306 305 306 305 306 306 304 310 311 300 295 296 295 289 288 285 292 294 294 293 288 295 298 298 298 299 299 300 300
311 311 311 310 310 311 311 311 311 312 311 312 305 302 292 309 305 309 309 304 305 305 305 309 305 300 297 292 289 287 282 283 288 292 293 291 287 295 297 296 297 298 300 300 299
311 311 310 310 310 311 310 310 310 309 309 309 308 298 299 299 308 310 309 307 305 303 303 302 297 293 289 288 284 283 282 285 286 291 292 290 289 293 296 295 295 296 297 298 299
310 310 310 310 311 310 306 299 293 293 304 297 298 299 302 308 311 308 310 306 306 300 293 299 293 288 289 290 291 288 286 285 288 292 291 289 290 292 295 295 294 295 295 296 297
309 309 310 310 310 309 303 292 295 297 288 298 301 300 303 305 299 302 307 299 299 293 296 292 291 296 296 293 291 289 287 286 289 294 290 290 289 292 294 295 295 296 296 297 297
309 309 309 309 309 300 293 296 300 297 288 294 298 298 300 302 298 299 304 300 297 293 293 291 294 300 297 293 290 290 287 287 287 292 293 290 289 291 295 295 296 296 298 298 298
309 309 309 309 298 295 293 298 299 298 283 289 296 300 303 303 297 306 306 300 296 293 293 293 298 296 295 293 294 288 292 291 290 288 282 289 281 287 291 293 295 297 296 296 297
309 309 309 307 299 293 295 297 299 295 273 290 299 307 304 299 301 303 306 300 294 294 293 291 292 293 292 294 297 292 295 292 291 288 285 287 282 286 290 291 293 295 295 296 298
309 309 308 300 298 298 299 298 297 281 274 289 296 295 295 297 299 304 302 303 301 295 295 294 297 296 295 297 298 299 294 293 291 287 281 286 284 283 287 291 293 297 297 299 310
308 308 304 303 292 297 297 294 282 276 289 289 290 295 293 292 296 301 299 296 294 287 289 292 293 296 298 292 295 297 290 283 282 280 280 286 284 288 291 295 296 298 302 308 313
306 305 299 301 299 299 296 287 276 283 286 295 294 293 289 294 295 298 294 293 297 297 292 288 285 294 297 294 290 291 293 282 279 278 280 288 283 288 296 303 303 304 307 315 316
304 295 295 299 301 298 295 280 280 289 292 290 292 289 290 293 293 293 293 291 295 297 290 289 288 298 299 299 297 291 289 293 285 287 279 283 287 295 302 302 304 309 313 313 315
295 290 293 301 302 302 293 286 289 295 294 292 286 291 287 289 290 290 291 296 294 298 301 296 287 297 297 298 299 294 297 288 288 278 277 283 286 285 296 298 302 307 311 312 311
290 286 295 303 303 296 289 290 291 295 295 291 290 288 288 288 291 289 292 295 299 299 300 297 293 291 296 292 290 291 292 290 289 284 279 280 285 296 296 299 300 303 307 308 308
292 282 294 298 287 291 284 289 293 292 296 294 294 292 291 292 289 288 290 294 301 302 296 300 295 287 290 297 299 295 293 291 281 281 283 285 289 302 299 302 305 308 307 307 305
291 290 296 296 280 280 286 288 290 291 292 292 291 293 294 291 287 290 293 300 301 299 297 300 291 285 288 293 294 292 293 294 292 288 284 282 287 303 302 302 306 306 308 307 307
291 284 290 289 289 284 283 285 286 293 291 293 290 294 288 289 293 289 291 296 299 300 305 302 292 286 283 287 293 291 293 292 291 286 285 286 293 298 301 301 305 307 306 306 306
288 285 290 279 282 284 285 285 284 286 292 292 290 291 288 286 288 288 292 291 296 301 300 299 289 292 293 296 296 295 294 293 289 289 285 290 294 298 301 302 305 308 307 305 305
284 284 287 286 286 285 286 283 284 286 287 287 287 288 288 286 288 288 291 290 291 298 298 298 290 293 290 295 296 294 294 296 294 294 295 295 294 302 304 305 306 308 306 304 303
294 290 289 286 282 283 283 286 285 288 289 291 288 288 287 290 294 293 295 295 294 292 291 294 290 290 287 293 293 289 292 295 297 299 299 293 297 303 302 304 305 307 307 304 304
Wind_Speed
16 17 16 17 17 17 16 15 14 15 15 16 17 17 18 20 20 8 9 18 13 12 11 2 3 3 2 1 3 4 3 5 6 5 4 2 1 3 2 2 5 5 3 4 15
15 16 16 18 18 18 20 18 18 15 15 15 16 16 17 18 14 12 16 16 16 7 5 10 8 6 3 3 2 5 5 9 7 5 3 1 3 5 6 7 4 2 7 7 9
15 15 15 16 18 17 17 19 21 21 18 17 16 16 17 14 6 8 7 13 14 15 4 5 7 7 5 3 5 6 7 5 4 6 4 2 2 4 3 6 6 1 2 4 6
19 19 19 18 18 19 19 19 20 20 20 18 16 17 18 3 8 2 5 14 7 9 3 5 6 9 6 7 6 5 8 8 3 6 4 7 4 3 3 9 6 3 6 4 7
19 19 20 20 21 21 20 21 21 21 20 17 16 15 7 3 15 9 16 10 7 8 7 5 6 6 8 7 4 3 3 5 10 12 7 10 13 6 10 14 9 7 5 8 8
19 19 20 21 22 22 21 20 20 19 19 18 15 14 4 12 6 7 2 5 2 4 7 7 8 6 5 5 8 5 9 11 8 6 4 6 15 9 7 11 8 6 9 9 7
18 19 21 22 23 24 23 20 20 21 21 19 14 7 13 26 3 2 7 1 1 2 5 7 4 6 5 1 5 4 7 9 6 4 6 4 23 25 10 11 12 11 10 9 11
18 18 20 22 24 25 25 23 24 25 24 19 12 4 13 5 6 11 6 6 11 10 8 4 5 3 4 2 6 2 4 5 6 9 7 10 27 8 9 9 11 11 10 9 9
20 19 20 23 25 26 25 27 29 17 7 6 5 5 14 11 6 8 10 6 7 5 5 6 6 6 3 3 5 3 4 4 1 9 6 12 3 3 10 10 11 10 10 9 9
22 22 22 23 25 25 25 27 15 1 6 6 2 4 7 5 4 1 2 7 2 8 3 6 4 5 3 6 11 5 4 4 4 6 10 11 14 9 9 7 11 10 9 9 9
25 23 23 24 24 22 20 6 4 2 5 11 8 7 6 4 5 3 3 4 1 3 7 6 6 13 6 6 3 1 3 2 2 6 7 9 15 8 11 7 9 9 10 10 10
24 24 24 24 25 24 2 0 3 1 11 19 24 22 21 10 11 10 7 3 4 5 6 4 17 9 12 11 10 8 12 7 5 10 5 6 9 9 9 9 9 11 11 11 8
23 24 24 24 25 4 1 6 3 4 4 9 6 6 6 12 10 8 10 10 6 7 10 14 5 20 15 9 12 13 15 7 4 6 7 3 9 6 8 7 6 10 13 9 11
23 24 22 21 8 2 5 2 2 1 4 8 5 4 3 5 7 9 9 6 8 13 6 11 13 5 12 16 13 14 9 6 8 7 5 3 8 7 6 10 7 11 10 11 11
28 26 24 18 8 3 1 3 5 2 5 0 1 9 4 5 8 2 2 3 7 7 8 8 9 15 17 11 14 9 10 11 10 7 5 6 2 7 3 9 11 10 9 10 10
30 31 28 3 1 7 4 5 2 4 9 6 3 8 13 12 7 5 5 4 5 3 5 8 5 8 14 19 11 10 4 3 2 3 4 9 7 5 5 8 6 6 6 6 7
32 32 13 2 4 1 1 2 4 4 5 4 8 10 17 14 5 5 6 6 6 5 11 4 9 4 6 9 10 10 8 3 1 2 10 9 4 14 9 6 6 5 6 6 5
33 24 3 4 2 1 3 5 3 2 4 9 10 21 8 3 4 3 0 3 8 7 3 11 10 13 8 10 8 14 12 6 8 5 4 4 9 10 7 8 6 4 8 9 9
27 5 4 4 4 2 2 1 4 3 4 11 16 8 4 5 4 4 7 6 5 16 11 6 9 5 14 10 13 6 13 7 2 3 2 6 6 5 3 8 6 5 11 9 8
7 4 5 2 1 3 2 5 4 1 6 4 5 3 5 9 9 6 4 5 5 12 20 5 5 6 7 7 6 8 10 5 2 5 4 4 5 7 4 7 6 5 10 9 6
4 5 3 4 1 1 3 4 5 8 10 5 8 13 13 16 6 4 9 10 17 12 16 15 1 3 8 7 11 4 9 4 8 4 6 4 4 2 0 1 3 5 5 6 7
4 4 3 4 5 2 2 5 9 9 7 11 8 13 15 12 3 7 7 7 10 5 4 15 4 5 5 3 5 9 14 9 6 4 3 2 2 3 4 4 9 8 8 6 7
6 4 5 3 2 4 6 8 9 7 8 6 7 6 7 6 6 9 8 6 16 2 7 6 4 4 1 5 2 5 7 12 5 3 7 5 3 3 4 9 10 11 10 7 10
3 6 5 5 2 2 6 9 6 8 13 5 10 8 5 8 5 10 11 9 14 14 12 8 6 5 5 4 7 6 13 13 14 7 4 5 9 6 6 12 12 11 12 8 10
3 3 3 5 6 13 6 7 13 5 7 5 8 5 14 6 17 11 5 7 16 6 3 3 1 3 2 3 4 5 13 13 8 9 8 7 14 15 13 15 13 12 12 12 11
3 4 4 11 9 8 10 5 13 10 6 13 7 18 17 14 16 22 8 3 7 7 6 2 1 5 9 2 4 4 14 11 10 5 5 12 6 9 13 16 18 13 10 12 12
2 3 3 6 4 6 5 12 17 18 12 9 16 17 17 16 14 18 17 16 16 13 3 4 2 3 4 6 6 2 7 15 8 4 7 8 7 16 8 13 18 21 11 9 14
Wind_Direction
353 350 348 346 345 340 341 340 338 339 336 333 331 330 327 325 320 306 246 221 195 224 179 189 94 155 79 125 136 134 115 226 238 166 233 274 11 332 292 288 339 334 310 308 123
356 351 348 344 340 334 333 334 333 330 329 327 327 326 321 320 305 251 245 248 239 213 174 166 171 147 152 195 186 155 175 219 201 202 227 70 20 346 349 354 324 347 43 89 119
345 340 334 333 328 327 324 326 325 323 324 327 327 324 319 329 308 239 104 18 208 211 247 177 145 143 179 148 197 186 208 231 221 233 267 227 224 254 221 297 224 96 78 118 115
348 342 337 330 325 322 322 314 311 313 318 323 323 321 320 355 290 160 303 4 145 156 224 169 142 152 173 195 204 197 221 220 193 223 261 260 187 237 235 238 271 291 302 164 166
343 338 334 329 324 321 318 315 312 310 310 314 316 315 327 262 253 301 331 354 124 141 192 183 145 133 176 189 197 233 256 222 241 250 248 287 251 219 252 268 276 286 267 256 181
342 338 333 330 325 323 320 315 312 306 297 301 305 310 269 264 234 234 37 11 111 129 174 180 184 187 177 186 171 208 209 239 249 238 245 241 275 181 215 255 278 282 248 250 233
339 336 332 328 325 322 319 313 308 303 297 289 290 288 263 246 269 136 300 208 273 307 180 209 188 179 155 334 228 258 267 268 230 216 246 132 278 246 205 240 259 263 261 236 228
336 332 329 326 323 321 317 311 304 301 290 276 260 237 256 256 224 246 240 248 236 237 234 260 190 238 178 305 6 230 149 227 225 185 226 165 256 262 186 198 243 240 249 234 250
333 330 327 325 323 319 317 312 309 307 284 221 166 205 260 303 272 260 187 209 200 179 203 238 147 189 138 112 343 283 225 175 262 192 175 198 279 291 192 192 227 235 232 248 259
332 330 327 323 321 321 320 315 301 358 100 143 198 191 259 277 243 123 132 186 161 144 130 169 152 175 165 155 211 201 191 228 180 209 204 224 241 276 283 207 219 235 250 250 258
331 328 326 322 320 322 326 342 2 321 241 207 198 229 301 239 283 188 161 173 194 153 157 195 174 210 164 184 249 327 241 245 283 238 203 230 258 242 262 228 240 234 235 240 239
327 325 324 321 318 321 330 256 236 176 293 249 250 261 261 291 304 274 317 289 198 195 139 118 230 191 176 195 208 226 246 240 274 270 180 270 268 245 246 250 207 233 238 239 236
326 323 323 321 316 2 164 235 324 3 283 291 213 223 236 186 224 271 188 179 201 204 195 208 223 185 194 195 205 223 230 234 218 303 281 274 285 258 260 247 243 233 237 230 217
326 321 323 326 333 340 268 144 43 194 353 278 226 250 135 128 231 214 206 162 196 213 187 234 227 192 210 212 197 228 179 177 205 191 225 163 276 265 251 265 264 261 232 223 215
325 322 321 316 284 275 168 7 348 96 334 320 139 147 152 169 294 170 146 264 195 179 161 216 182 209 229 221 216 235 174 194 209 213 167 246 242 260 311 278 270 264 231 217 213
328 325 329 28 180 248 308 353 97 39 254 323 76 3 345 327 268 159 181 179 213 232 236 217 213 199 218 216 214 220 263 81 83 129 210 206 173 272 217 227 271 242 222 193 176
331 326 332 183 230 12 27 70 34 177 346 0 343 346 324 292 260 207 200 175 182 203 233 255 226 201 186 205 210 203 175 256 311 246 236 147 164 241 268 257 252 262 130 101 83
331 327 285 222 276 348 359 47 218 292 316 358 344 320 279 277 249 288 134 243 235 199 266 212 237 200 192 190 173 203 179 168 188 195 225 102 221 244 260 285 329 53 107 80 64
330 333 336 326 150 135 51 116 244 341 345 342 323 290 283 360 349 315 214 214 237 199 201 216 233 242 193 173 159 190 184 168 322 192 145 202 239 317 9 25 40 108 94 82 76
329 337 294 326 180 279 42 240 276 275 345 338 278 297 316 303 313 319 260 220 226 208 199 249 243 201 188 149 186 158 139 135 239 172 209 242 206 226 357 346 10 54 107 96 88
19 5 289 340 31 6 268 271 293 310 303 238 253 275 269 283 271 247 241 255 257 217 197 197 243 260 127 180 173 136 175 140 131 200 168 174 243 272 64 355 22 34 41 70 90
355 347 299 352 43 8 291 297 308 273 288 289 264 268 258 273 278 277 251 292 336 357 248 182 163 211 180 136 139 183 165 201 136 207 229 152 220 76 113 98 103 71 72 72 64
336 288 307 59 40 342 303 295 284 286 310 295 297 290 338 306 272 250 266 310 317 248 240 146 148 144 186 318 332 162 167 186 133 101 195 144 243 123 97 91 84 74 82 81 93
333 327 330 30 351 8 312 299 300 290 283 315 277 285 360 297 254 284 286 308 317 297 277 158 172 192 180 196 154 158 187 176 183 187 223 211 146 188 134 108 102 90 85 85 85
22 313 6 316 319 314 281 292 291 294 326 325 298 322 351 294 305 275 285 319 288 279 337 159 256 238 316 199 131 155 190 181 167 179 164 184 161 175 165 132 109 109 108 103 101
33 356 327 290 281 277 295 269 289 326 324 305 286 324 318 292 285 301 306 303 275 7 335 43 343 215 226 168 109 199 208 189 199 169 181 164 165 187 148 132 112 99 111 119 110
342 299 262 269 289 289 275 309 307 307 293 278 308 304 298 287 311 302 288 265 262 286 280 277 184 230 190 149 80 289 188 181 205 142 164 161 190 150 154 164 137 131 152 146 141